Tracking 20942 objects as of 9-Jul-2020
HD Live streaming from Space Station
objects crossing your sky now

COSMOS 2251 DEB

Track COSMOS 2251 DEB now!
10-day predictions


NORAD ID: 34561
Int'l Code: 1993-036UX
Perigee: 687.5 km
Apogee: 743.4 km
Inclination: 74.0 °
Period: 98.9 minutes
Semi major axis: 7086 km
RCS: 0.028 m2 (small)
Launch date: June 16, 1993
Source: Commonwealth of Independent States (former USSR) (CIS)
Launch site: PLESETSK MISSILE AND SPACE COMPLEX (PKMTR)

Note: This is SATELLITE DEBRIS
aabbcc
Your satellite tracking list
Your tracking list is empty




NASA's NSSDC Master Catalog

Two Line Element Set (TLE):
1 34561U 93036UX  20191.35685692  .00000782  00000-0  18533-3 0  9997
2 34561  74.0323 163.5663 0039418  23.7404 336.5566 14.55318574599061
Source of the keplerian elements: AFSPC